Time,TemperatureF,DewpointF,PressureIn,WindDirection,WindDirectionDegrees,WindSpeedMPH,WindSpeedGustMPH,Humidity,HourlyPrecipIn,Conditions,Clouds,dailyrainin,SoftwareType,DateUTC
2013-07-16 00:00:00,79.0,66.7,30.09,ESE,109,0.0,2.0,66,0.00,,---,0.00,VWS V14.01,2013-07-16 05:00:00,
2013-07-16 00:01:00,79.0,66.7,30.09,ENE,61,0.0,2.0,66,0.00,,---,0.00,VWS V14.01,2013-07-16 05:01:00,
2013-07-16 00:06:00,78.8,66.5,30.09,ENE,77,0.0,2.0,66,0.00,,---,0.00,VWS V14.01,2013-07-16 05:06:00,
2013-07-16 00:11:00,78.8,66.9,30.09,ENE,74,0.0,2.0,67,0.00,,---,0.00,VWS V14.01,2013-07-16 05:11:00,
2013-07-16 00:16:00,78.8,66.9,30.09,NE,51,0.0,2.0,67,0.00,,---,0.00,VWS V14.01,2013-07-16 05:16:00,
2013-07-16 00:21:00,78.6,66.7,30.08,ENE,71,0.0,2.0,67,0.00,,---,0.00,VWS V14.01,2013-07-16 05:21:00,
2013-07-16 00:26:00,78.6,67.2,30.08,ENE,69,0.0,2.0,68,0.00,,---,0.00,VWS V14.01,2013-07-16 05:26:00,
2013-07-16 00:30:00,78.5,67.1,30.08,ESE,113,1.0,2.0,68,0.00,,---,0.00,VWS V14.01,2013-07-16 05:30:00,
2013-07-16 00:31:00,78.5,67.1,30.08,SW,234,0.0,2.0,68,0.00,,---,0.00,VWS V14.01,2013-07-16 05:31:00,
2013-07-16 00:36:00,78.3,66.9,30.08,East,94,0.0,1.0,68,0.00,,---,0.00,VWS V14.01,2013-07-16 05:36:00,
2013-07-16 00:41:00,78.3,67.3,30.08,ENE,71,0.0,2.0,69,0.00,,---,0.00,VWS V14.01,2013-07-16 05:41:00,
2013-07-16 00:46:00,78.1,67.1,30.08,East,82,0.0,2.0,69,0.00,,---,0.00,VWS V14.01,2013-07-16 05:46:00,
2013-07-16 00:51:00,77.9,66.9,30.09,ENE,71,0.0,2.0,69,0.00,,---,0.00,VWS V14.01,2013-07-16 05:51:00,
2013-07-16 00:56:00,77.7,66.7,30.09,NE,53,0.0,2.0,69,0.00,,---,0.00,VWS V14.01,2013-07-16 05:56:00,
2013-07-16 01:00:00,77.6,67.1,30.09,East,80,1.0,2.0,70,0.00,,---,0.00,VWS V14.01,2013-07-16 06:00:00,
2013-07-16 01:01:00,77.7,67.1,30.09,East,84,2.0,2.0,70,0.00,,---,0.00,VWS V14.01,2013-07-16 06:01:00,
2013-07-16 01:06:00,77.6,67.5,30.09,East,79,0.0,1.0,71,0.00,,---,0.00,VWS V14.01,2013-07-16 06:06:00,
2013-07-16 01:11:00,77.4,67.3,30.09,East,86,0.0,1.0,71,0.00,,---,0.00,VWS V14.01,2013-07-16 06:11:00,
2013-07-16 01:16:00,77.4,67.3,30.09,East,94,0.0,1.0,71,0.00,,---,0.00,VWS V14.01,2013-07-16 06:16:00,
2013-07-16 01:21:00,77.4,67.3,30.09,East,92,0.0,1.0,71,0.00,,---,0.00,VWS V14.01,2013-07-16 06:21:00,
2013-07-16 01:26:00,77.2,67.1,30.09,East,80,0.0,1.0,71,0.00,,---,0.00,VWS V14.01,2013-07-16 06:26:00,
2013-07-16 01:30:00,77.0,66.9,30.09,ENE,61,0.0,1.0,71,0.00,,---,0.00,VWS V14.01,2013-07-16 06:30:00,
2013-07-16 01:31:00,77.2,67.1,30.09,ENE,58,0.0,1.0,71,0.00,,---,0.00,VWS V14.01,2013-07-16 06:31:00,
2013-07-16 01:36:00,77.0,66.9,30.09,NNE,27,1.0,1.0,71,0.00,,---,0.00,VWS V14.01,2013-07-16 06:36:00,
2013-07-16 01:41:00,77.0,67.3,30.09,East,79,0.0,1.0,72,0.00,,---,0.00,VWS V14.01,2013-07-16 06:41:00,
2013-07-16 01:46:00,77.0,67.3,30.09,East,85,0.0,2.0,72,0.00,,---,0.00,VWS V14.01,2013-07-16 06:46:00,
2013-07-16 01:51:00,76.8,67.5,30.09,East,97,1.0,2.0,73,0.00,,---,0.00,VWS V14.01,2013-07-16 06:51:00,
2013-07-16 01:56:00,76.8,67.5,30.09,ENE,74,0.0,3.0,73,0.00,,---,0.00,VWS V14.01,2013-07-16 06:56:00,
2013-07-16 02:00:00,76.7,67.8,30.09,ENE,76,0.0,3.0,74,0.00,,---,0.00,VWS V14.01,2013-07-16 07:00:00,
2013-07-16 02:01:00,76.7,67.4,30.09,East,82,0.0,3.0,73,0.00,,---,0.00,VWS V14.01,2013-07-16 07:01:00,
2013-07-16 02:06:00,76.7,67.8,30.09,East,79,2.0,2.0,74,0.00,,---,0.00,VWS V14.01,2013-07-16 07:06:00,
2013-07-16 02:11:00,76.7,67.8,30.09,ENE,69,1.0,2.0,74,0.00,,---,0.00,VWS V14.01,2013-07-16 07:11:00,
2013-07-16 02:16:00,76.5,67.6,30.09,East,93,2.0,3.0,74,0.00,,---,0.00,VWS V14.01,2013-07-16 07:16:00,
2013-07-16 02:21:00,76.5,68.0,30.09,ENE,69,2.0,5.0,75,0.00,,---,0.00,VWS V14.01,2013-07-16 07:21:00,
2013-07-16 02:26:00,76.3,67.8,30.09,East,82,1.0,5.0,75,0.00,,---,0.00,VWS V14.01,2013-07-16 07:26:00,
2013-07-16 02:30:00,76.1,68.0,30.09,East,83,2.0,5.0,76,0.00,,---,0.00,VWS V14.01,2013-07-16 07:30:00,
2013-07-16 02:31:00,76.1,67.6,30.09,East,88,1.0,5.0,75,0.00,,---,0.00,VWS V14.01,2013-07-16 07:31:00,
2013-07-16 02:36:00,76.1,68.0,30.09,ENE,74,1.0,2.0,76,0.00,,---,0.00,VWS V14.01,2013-07-16 07:36:00,
2013-07-16 02:41:00,76.0,67.9,30.09,ENE,71,1.0,2.0,76,0.00,,---,0.00,VWS V14.01,2013-07-16 07:41:00,
2013-07-16 02:46:00,76.0,68.3,30.09,ENE,61,1.0,2.0,77,0.00,,---,0.00,VWS V14.01,2013-07-16 07:46:00,
2013-07-16 02:51:00,75.8,68.1,30.09,ENE,63,0.0,2.0,77,0.00,,---,0.00,VWS V14.01,2013-07-16 07:51:00,
2013-07-16 02:56:00,75.8,68.1,30.09,ENE,71,1.0,2.0,77,0.00,,---,0.00,VWS V14.01,2013-07-16 07:56:00,
2013-07-16 03:00:00,75.6,68.3,30.09,East,88,0.0,2.0,78,0.00,,---,0.00,VWS V14.01,2013-07-16 08:00:00,
2013-07-16 03:01:00,75.8,68.5,30.09,NE,54,0.0,2.0,78,0.00,,---,0.00,VWS V14.01,2013-07-16 08:01:00,
2013-07-16 03:06:00,75.6,68.3,30.09,East,82,1.0,2.0,78,0.00,,---,0.00,VWS V14.01,2013-07-16 08:06:00,
2013-07-16 03:11:00,75.4,68.1,30.09,ENE,61,0.0,2.0,78,0.00,,---,0.00,VWS V14.01,2013-07-16 08:11:00,
2013-07-16 03:16:00,75.4,68.1,30.09,ENE,71,0.0,2.0,78,0.00,,---,0.00,VWS V14.01,2013-07-16 08:16:00,
2013-07-16 03:21:00,75.3,68.0,30.08,ENE,73,0.0,2.0,78,0.00,,---,0.00,VWS V14.01,2013-07-16 08:21:00,
2013-07-16 03:26:00,75.3,68.3,30.08,NNE,24,0.0,2.0,79,0.00,,---,0.00,VWS V14.01,2013-07-16 08:26:00,
2013-07-16 03:30:00,75.1,68.5,30.09,NE,36,1.0,2.0,80,0.00,,---,0.00,VWS V14.01,2013-07-16 08:30:00,
2013-07-16 03:31:00,75.1,68.2,30.08,NE,42,1.0,2.0,79,0.00,,---,0.00,VWS V14.01,2013-07-16 08:31:00,
2013-07-16 03:36:00,75.1,68.5,30.09,ENE,61,0.0,2.0,80,0.00,,---,0.00,VWS V14.01,2013-07-16 08:36:00,
2013-07-16 03:41:00,74.9,68.3,30.09,NE,54,1.0,3.0,80,0.00,,---,0.00,VWS V14.01,2013-07-16 08:41:00,
2013-07-16 03:46:00,74.9,68.7,30.09,NE,54,2.0,5.0,81,0.00,,---,0.00,VWS V14.01,2013-07-16 08:46:00,
2013-07-16 03:51:00,74.7,68.5,30.09,ENE,59,1.0,5.0,81,0.00,,---,0.00,VWS V14.01,2013-07-16 08:51:00,
2013-07-16 03:56:00,74.6,68.4,30.09,ENE,74,1.0,5.0,81,0.00,,---,0.00,VWS V14.01,2013-07-16 08:56:00,
2013-07-16 04:00:00,74.2,68.4,30.09,ENE,69,2.0,5.0,82,0.00,,---,0.00,VWS V14.01,2013-07-16 09:00:00,
2013-07-16 04:01:00,74.4,68.2,30.09,NE,56,3.0,5.0,81,0.00,,---,0.00,VWS V14.01,2013-07-16 09:01:00,
2013-07-16 04:06:00,74.2,68.4,30.09,ENE,63,3.0,4.0,82,0.00,,---,0.00,VWS V14.01,2013-07-16 09:06:00,
2013-07-16 04:11:00,74.0,68.2,30.09,ENE,59,0.0,5.0,82,0.00,,---,0.00,VWS V14.01,2013-07-16 09:11:00,
2013-07-16 04:16:00,74.0,68.5,30.09,East,80,1.0,5.0,83,0.00,,---,0.00,VWS V14.01,2013-07-16 09:16:00,
2013-07-16 04:21:00,73.9,68.4,30.09,ENE,68,0.0,5.0,83,0.00,,---,0.00,VWS V14.01,2013-07-16 09:21:00,
2013-07-16 04:25:00,73.9,68.8,30.09,East,83,1.0,5.0,84,0.00,,---,0.00,VWS V14.01,2013-07-16 09:25:00,
2013-07-16 04:30:00,73.7,68.6,30.09,ENE,74,1.0,5.0,84,0.00,,---,0.00,VWS V14.01,2013-07-16 09:30:00,
2013-07-16 04:35:00,73.7,68.6,30.09,East,82,0.0,1.0,84,0.00,,---,0.00,VWS V14.01,2013-07-16 09:35:00,
2013-07-16 04:40:00,73.7,68.9,30.09,ENE,59,0.0,2.0,85,0.00,,---,0.00,VWS V14.01,2013-07-16 09:40:00,
2013-07-16 04:45:00,73.5,68.7,30.09,East,93,0.0,2.0,85,0.00,,---,0.00,VWS V14.01,2013-07-16 09:45:00,
2013-07-16 04:50:00,73.5,68.7,30.09,East,85,0.0,2.0,85,0.00,,---,0.00,VWS V14.01,2013-07-16 09:50:00,
2013-07-16 04:55:00,73.3,68.5,30.09,NE,35,0.0,2.0,85,0.00,,---,0.00,VWS V14.01,2013-07-16 09:55:00,
2013-07-16 05:00:00,73.3,68.5,30.09,NE,50,0.0,2.0,85,0.00,,---,0.00,VWS V14.01,2013-07-16 10:00:00,
2013-07-16 05:05:00,73.3,68.2,30.09,NE,42,0.0,0.0,84,0.00,,---,0.00,VWS V14.01,2013-07-16 10:05:00,
2013-07-16 05:10:00,73.2,68.1,30.09,East,80,0.0,1.0,84,0.00,,---,0.00,VWS V14.01,2013-07-16 10:10:00,
2013-07-16 05:15:00,73.2,68.4,30.09,East,99,0.0,1.0,85,0.00,,---,0.00,VWS V14.01,2013-07-16 10:15:00,
2013-07-16 05:20:00,73.2,68.8,30.09,ENE,78,1.0,1.0,86,0.00,,---,0.00,VWS V14.01,2013-07-16 10:20:00,
2013-07-16 05:25:00,73.2,68.8,30.09,ENE,69,0.0,1.0,86,0.00,,---,0.00,VWS V14.01,2013-07-16 10:25:00,
2013-07-16 05:30:00,73.2,69.1,30.09,ENE,73,0.0,1.0,87,0.00,,---,0.00,VWS V14.01,2013-07-16 10:30:00,
2013-07-16 05:35:00,73.2,69.1,30.10,East,79,0.0,1.0,87,0.00,,---,0.00,VWS V14.01,2013-07-16 10:35:00,
2013-07-16 05:40:00,73.0,68.9,30.10,East,92,0.0,1.0,87,0.00,,---,0.00,VWS V14.01,2013-07-16 10:40:00,
2013-07-16 05:45:00,73.0,68.9,30.10,ENE,74,0.0,1.0,87,0.00,,---,0.00,VWS V14.01,2013-07-16 10:45:00,
2013-07-16 05:50:00,73.0,69.2,30.10,ESE,102,0.0,1.0,88,0.00,,---,0.00,VWS V14.01,2013-07-16 10:50:00,
2013-07-16 05:55:00,72.8,69.0,30.10,East,82,0.0,1.0,88,0.00,,---,0.00,VWS V14.01,2013-07-16 10:55:00,
2013-07-16 06:00:00,72.8,69.0,30.10,East,91,0.0,1.0,88,0.00,,---,0.00,VWS V14.01,2013-07-16 11:00:00,
2013-07-16 06:05:00,72.8,69.0,30.11,East,84,0.0,1.0,88,0.00,,---,0.00,VWS V14.01,2013-07-16 11:05:00,
2013-07-16 06:10:00,72.7,68.9,30.11,ENE,77,0.0,1.0,88,0.00,,---,0.00,VWS V14.01,2013-07-16 11:10:00,
2013-07-16 06:15:00,72.7,68.9,30.11,East,84,0.0,1.0,88,0.00,,---,0.00,VWS V14.01,2013-07-16 11:15:00,
2013-07-16 06:20:00,72.7,69.3,30.12,ENE,75,0.0,1.0,89,0.00,,---,0.00,VWS V14.01,2013-07-16 11:20:00,
2013-07-16 06:25:00,72.7,69.3,30.12,ENE,76,0.0,1.0,89,0.00,,---,0.00,VWS V14.01,2013-07-16 11:25:00,
2013-07-16 06:30:00,72.7,69.3,30.12,East,88,0.0,1.0,89,0.00,,---,0.00,VWS V14.01,2013-07-16 11:30:00,
2013-07-16 06:35:00,72.7,69.3,30.12,ESE,111,0.0,0.0,89,0.00,,---,0.00,VWS V14.01,2013-07-16 11:35:00,
2013-07-16 06:40:00,72.7,69.3,30.12,East,79,1.0,3.0,89,0.00,,---,0.00,VWS V14.01,2013-07-16 11:40:00,
2013-07-16 06:45:00,72.7,69.3,30.12,ENE,63,0.0,3.0,89,0.00,,---,0.00,VWS V14.01,2013-07-16 11:45:00,
2013-07-16 06:50:00,72.8,69.0,30.12,East,83,0.0,3.0,88,0.00,,---,0.00,VWS V14.01,2013-07-16 11:50:00,
2013-07-16 06:55:00,73.0,69.2,30.12,ENE,66,0.0,3.0,88,0.00,,---,0.00,VWS V14.01,2013-07-16 11:55:00,
2013-07-16 07:00:00,73.0,69.2,30.12,ENE,78,0.0,3.0,88,0.00,,---,0.00,VWS V14.01,2013-07-16 12:00:00,
2013-07-16 07:05:00,73.3,69.5,30.13,East,100,0.0,2.0,88,0.00,,---,0.00,VWS V14.01,2013-07-16 12:05:00,
2013-07-16 07:10:00,73.5,69.4,30.13,East,101,0.0,3.0,87,0.00,,---,0.00,VWS V14.01,2013-07-16 12:10:00,
2013-07-16 07:15:00,73.9,69.4,30.13,East,79,0.0,3.0,86,0.00,,---,0.00,VWS V14.01,2013-07-16 12:15:00,
2013-07-16 07:20:00,74.0,69.2,30.14,East,98,0.0,3.0,85,0.00,,---,0.00,VWS V14.01,2013-07-16 12:20:00,
2013-07-16 07:25:00,74.4,69.6,30.14,East,90,0.0,3.0,85,0.00,,---,0.00,VWS V14.01,2013-07-16 12:25:00,
2013-07-16 07:30:00,74.7,69.6,30.14,ESE,114,0.0,3.0,84,0.00,,---,0.00,VWS V14.01,2013-07-16 12:30:00,
2013-07-16 07:35:00,75.1,69.6,30.14,SE,130,2.0,2.0,83,0.00,,---,0.00,VWS V14.01,2013-07-16 12:35:00,
2013-07-16 07:40:00,75.4,69.5,30.14,SE,129,0.0,3.0,82,0.00,,---,0.00,VWS V14.01,2013-07-16 12:40:00,
2013-07-16 07:45:00,75.8,69.6,30.14,SE,139,3.0,5.0,81,0.00,,---,0.00,VWS V14.01,2013-07-16 12:45:00,
2013-07-16 07:50:00,76.1,69.1,30.15,SE,140,3.0,5.0,79,0.00,,---,0.00,VWS V14.01,2013-07-16 12:50:00,
2013-07-16 07:55:00,76.5,69.1,30.15,SSE,151,1.0,5.0,78,0.00,,---,0.00,VWS V14.01,2013-07-16 12:55:00,
2013-07-16 08:00:00,76.8,69.1,30.15,NE,41,0.0,5.0,77,0.00,,---,0.00,VWS V14.01,2013-07-16 13:00:00,
2013-07-16 08:05:00,77.2,69.4,30.15,SE,140,2.0,2.0,77,0.00,,---,0.00,VWS V14.01,2013-07-16 13:05:00,
2013-07-16 08:10:00,77.7,69.2,30.15,SE,138,5.0,5.0,75,0.00,,---,0.00,VWS V14.01,2013-07-16 13:10:00,
2013-07-16 08:15:00,78.1,69.5,30.15,NE,55,3.0,6.0,75,0.00,,---,0.00,VWS V14.01,2013-07-16 13:15:00,
2013-07-16 08:20:00,78.3,69.3,30.16,ESE,110,1.0,6.0,74,0.00,,---,0.00,VWS V14.01,2013-07-16 13:20:00,
2013-07-16 08:25:00,78.6,69.2,30.16,ENE,62,0.0,7.0,73,0.00,,---,0.00,VWS V14.01,2013-07-16 13:25:00,
2013-07-16 08:30:00,78.6,68.8,30.16,SSE,157,5.0,7.0,72,0.00,,---,0.00,VWS V14.01,2013-07-16 13:30:00,
2013-07-16 08:35:00,78.8,69.4,30.15,SE,138,4.0,5.0,73,0.00,,---,0.00,VWS V14.01,2013-07-16 13:35:00,
2013-07-16 08:40:00,79.0,69.6,30.15,ESE,102,0.0,5.0,73,0.00,,---,0.00,VWS V14.01,2013-07-16 13:40:00,
2013-07-16 08:45:00,79.4,69.6,30.15,SE,128,4.0,5.0,72,0.00,,---,0.00,VWS V14.01,2013-07-16 13:45:00,
2013-07-16 08:50:00,79.8,69.6,30.16,East,86,0.0,5.0,71,0.00,,---,0.00,VWS V14.01,2013-07-16 13:50:00,
2013-07-16 08:55:00,80.1,69.4,30.16,East,80,0.0,5.0,70,0.00,,---,0.00,VWS V14.01,2013-07-16 13:55:00,
2013-07-16 09:00:00,80.5,69.4,30.16,SSE,150,3.0,5.0,69,0.00,,---,0.00,VWS V14.01,2013-07-16 14:00:00,
2013-07-16 09:05:00,80.9,69.4,30.16,SE,125,1.0,4.0,68,0.00,,---,0.00,VWS V14.01,2013-07-16 14:05:00,
2013-07-16 09:10:00,81.1,69.1,30.16,ESE,114,2.0,4.0,67,0.00,,---,0.00,VWS V14.01,2013-07-16 14:10:00,
2013-07-16 09:15:00,81.4,69.4,30.16,East,84,0.0,5.0,67,0.00,,---,0.00,VWS V14.01,2013-07-16 14:15:00,
2013-07-16 09:20:00,81.8,69.3,30.16,SE,145,5.0,7.0,66,0.00,,---,0.00,VWS V14.01,2013-07-16 14:20:00,
2013-07-16 09:25:00,82.0,69.5,30.16,SE,141,0.0,7.0,66,0.00,,---,0.00,VWS V14.01,2013-07-16 14:25:00,
2013-07-16 09:30:00,82.4,69.5,30.16,SSE,151,2.0,7.0,65,0.00,,---,0.00,VWS V14.01,2013-07-16 14:30:00,
2013-07-16 09:35:00,82.8,69.4,30.16,East,101,3.0,3.0,64,0.00,,---,0.00,VWS V14.01,2013-07-16 14:35:00,
2013-07-16 09:40:00,83.2,69.3,30.16,NNW,339,0.0,6.0,63,0.00,,---,0.00,VWS V14.01,2013-07-16 14:40:00,
2013-07-16 09:45:00,83.4,69.5,30.16,ESE,118,0.0,6.0,63,0.00,,---,0.00,VWS V14.01,2013-07-16 14:45:00,
2013-07-16 09:50:00,84.0,69.6,30.16,South,179,2.0,6.0,62,0.00,,---,0.00,VWS V14.01,2013-07-16 14:50:00,
2013-07-16 09:55:00,84.3,68.9,30.16,WSW,244,3.0,6.0,60,0.00,,---,0.00,VWS V14.01,2013-07-16 14:55:00,
2013-07-16 10:00:00,84.5,69.1,30.16,ESE,119,6.0,7.0,60,0.00,,---,0.00,VWS V14.01,2013-07-16 15:00:00,
2013-07-16 10:05:00,84.7,69.3,30.16,SE,130,2.0,2.0,60,0.00,,---,0.00,VWS V14.01,2013-07-16 15:05:00,
2013-07-16 10:10:00,84.9,69.0,30.16,SW,220,2.0,6.0,59,0.00,,---,0.00,VWS V14.01,2013-07-16 15:10:00,
2013-07-16 10:15:00,84.5,68.6,30.16,North,360,0.0,6.0,59,0.00,,---,0.00,VWS V14.01,2013-07-16 15:15:00,
2013-07-16 10:20:00,84.5,68.6,30.16,ESE,107,2.0,6.0,59,0.00,,---,0.00,VWS V14.01,2013-07-16 15:20:00,
2013-07-16 10:25:00,84.5,68.6,30.16,WSW,244,4.0,9.0,59,0.00,,---,0.00,VWS V14.01,2013-07-16 15:25:00,
2013-07-16 10:30:00,84.7,68.3,30.16,South,180,3.0,9.0,58,0.00,,---,0.00,VWS V14.01,2013-07-16 15:30:00,
2013-07-16 10:35:00,84.7,68.3,30.16,West,270,3.0,3.0,58,0.00,,---,0.00,VWS V14.01,2013-07-16 15:35:00,
2013-07-16 10:40:00,84.9,68.5,30.16,WSW,242,2.0,4.0,58,0.00,,---,0.00,VWS V14.01,2013-07-16 15:40:00,
2013-07-16 10:45:00,85.1,68.7,30.16,West,261,2.0,6.0,58,0.00,,---,0.00,VWS V14.01,2013-07-16 15:45:00,
2013-07-16 10:50:00,85.3,68.9,30.16,South,187,0.0,6.0,58,0.00,,---,0.00,VWS V14.01,2013-07-16 15:50:00,
2013-07-16 10:55:00,85.9,68.9,30.16,ESE,119,6.0,6.0,57,0.00,,---,0.00,VWS V14.01,2013-07-16 15:55:00,
2013-07-16 11:00:00,86.5,69.0,30.16,ESE,118,2.0,6.0,56,0.00,,---,0.00,VWS V14.01,2013-07-16 16:00:00,
2013-07-16 11:05:00,87.0,68.9,30.16,SE,137,1.0,2.0,55,0.00,,---,0.00,VWS V14.01,2013-07-16 16:05:00,
2013-07-16 11:10:00,87.4,68.7,30.16,ENE,66,4.0,9.0,54,0.00,,---,0.00,VWS V14.01,2013-07-16 16:10:00,
2013-07-16 11:15:00,87.8,69.1,30.16,ESE,110,6.0,9.0,54,0.00,,---,0.00,VWS V14.01,2013-07-16 16:15:00,
2013-07-16 11:20:00,88.4,69.1,30.16,North,360,3.0,11.0,53,0.00,,---,0.00,VWS V14.01,2013-07-16 16:20:00,
2013-07-16 11:25:00,88.8,68.9,30.16,ENE,76,0.0,11.0,52,0.00,,---,0.00,VWS V14.01,2013-07-16 16:25:00,
2013-07-16 11:30:00,89.0,69.7,30.16,ESE,117,2.0,11.0,53,0.00,,---,0.00,VWS V14.01,2013-07-16 16:30:00,
2013-07-16 11:35:00,89.0,69.1,30.16,WNW,292,1.0,1.0,52,0.00,,---,0.00,VWS V14.01,2013-07-16 16:35:00,
2013-07-16 11:40:00,89.0,69.7,30.16,SE,134,3.0,8.0,53,0.00,,---,0.00,VWS V14.01,2013-07-16 16:40:00,
2013-07-16 11:45:00,88.8,69.5,30.16,SE,142,3.0,8.0,53,0.00,,---,0.00,VWS V14.01,2013-07-16 16:45:00,
2013-07-16 11:50:00,88.6,69.3,30.16,WSW,243,0.0,8.0,53,0.00,,---,0.00,VWS V14.01,2013-07-16 16:50:00,
2013-07-16 11:55:00,88.4,69.1,30.16,East,87,3.0,9.0,53,0.00,,---,0.00,VWS V14.01,2013-07-16 16:55:00,
2013-07-16 12:00:00,88.4,69.7,30.16,East,90,4.0,9.0,54,0.00,,---,0.00,VWS V14.01,2013-07-16 17:00:00,
2013-07-16 12:05:00,88.4,69.1,30.17,ENE,75,2.0,3.0,53,0.00,,---,0.00,VWS V14.01,2013-07-16 17:05:00,
2013-07-16 12:10:00,88.6,69.3,30.17,NNE,26,4.0,10.0,53,0.00,,---,0.00,VWS V14.01,2013-07-16 17:10:00,
2013-07-16 12:15:00,88.8,69.5,30.17,East,88,4.0,10.0,53,0.00,,---,0.00,VWS V14.01,2013-07-16 17:15:00,
2013-07-16 12:20:00,89.0,69.7,30.16,NNE,32,4.0,10.0,53,0.00,,---,0.00,VWS V14.01,2013-07-16 17:20:00,
2013-07-16 12:25:00,89.5,69.6,30.16,SE,130,5.0,10.0,52,0.00,,---,0.00,VWS V14.01,2013-07-16 17:25:00,
2013-07-16 12:30:00,89.5,69.0,30.16,South,171,2.0,11.0,51,0.00,,---,0.00,VWS V14.01,2013-07-16 17:30:00,
2013-07-16 12:35:00,89.3,69.4,30.16,ESE,109,3.0,3.0,52,0.00,,---,0.00,VWS V14.01,2013-07-16 17:35:00,
2013-07-16 12:40:00,89.5,69.6,30.16,ESE,113,4.0,8.0,52,0.00,,---,0.00,VWS V14.01,2013-07-16 17:40:00,
2013-07-16 12:45:00,89.7,69.2,30.16,East,80,2.0,8.0,51,0.00,,---,0.00,VWS V14.01,2013-07-16 17:45:00,
2013-07-16 12:50:00,89.7,69.2,30.15,SE,145,4.0,8.0,51,0.00,,---,0.00,VWS V14.01,2013-07-16 17:50:00,
2013-07-16 12:55:00,89.7,69.2,30.15,ESE,120,2.0,10.0,51,0.00,,---,0.00,VWS V14.01,2013-07-16 17:55:00,
2013-07-16 13:00:00,89.7,69.8,30.15,East,87,1.0,10.0,52,0.00,,---,0.00,VWS V14.01,2013-07-16 18:00:00,
2013-07-16 13:05:00,89.9,68.8,30.15,NE,53,5.0,5.0,50,0.00,,---,0.00,VWS V14.01,2013-07-16 18:05:00,
2013-07-16 13:10:00,89.7,69.2,30.15,SE,132,9.0,10.0,51,0.00,,---,0.00,VWS V14.01,2013-07-16 18:10:00,
2013-07-16 13:15:00,89.9,69.4,30.15,SSE,152,3.0,11.0,51,0.00,,---,0.00,VWS V14.01,2013-07-16 18:15:00,
2013-07-16 13:20:00,89.9,69.9,30.15,SSE,150,2.0,11.0,52,0.00,,---,0.00,VWS V14.01,2013-07-16 18:20:00,
2013-07-16 13:25:00,89.9,68.8,30.15,ENE,78,0.0,11.0,50,0.00,,---,0.00,VWS V14.01,2013-07-16 18:25:00,
2013-07-16 13:30:00,90.3,69.7,30.15,SSE,148,7.0,11.0,51,0.00,,---,0.00,VWS V14.01,2013-07-16 18:30:00,
2013-07-16 13:35:00,90.5,68.8,30.15,SE,136,1.0,3.0,49,0.00,,---,0.00,VWS V14.01,2013-07-16 18:35:00,
2013-07-16 13:40:00,91.0,68.6,30.15,SE,129,6.0,9.0,48,0.00,,---,0.00,VWS V14.01,2013-07-16 18:40:00,
2013-07-16 13:45:00,91.2,69.4,30.15,East,98,1.0,9.0,49,0.00,,---,0.00,VWS V14.01,2013-07-16 18:45:00,
2013-07-16 13:50:00,91.4,68.3,30.14,ENE,74,2.0,9.0,47,0.00,,---,0.00,VWS V14.01,2013-07-16 18:50:00,
2013-07-16 13:55:00,91.6,68.5,30.14,SE,135,2.0,10.0,47,0.00,,---,0.00,VWS V14.01,2013-07-16 18:55:00,
2013-07-16 14:00:00,91.6,68.5,30.14,ESE,121,1.0,10.0,47,0.00,,---,0.00,VWS V14.01,2013-07-16 19:00:00,
2013-07-16 14:05:00,91.6,68.5,30.14,North,5,0.0,11.0,47,0.00,,---,0.00,VWS V14.01,2013-07-16 19:05:00,
2013-07-16 14:10:00,91.6,67.9,30.14,ESE,117,3.0,10.0,46,0.00,,---,0.00,VWS V14.01,2013-07-16 19:10:00,
2013-07-16 14:15:00,92.1,67.7,30.14,ESE,112,1.0,12.0,45,0.00,,---,0.00,VWS V14.01,2013-07-16 19:15:00,
2013-07-16 14:20:00,91.8,68.7,30.13,ESE,110,7.0,12.0,47,0.00,,---,0.00,VWS V14.01,2013-07-16 19:20:00,
2013-07-16 14:25:00,91.4,69.0,30.13,North,360,1.0,12.0,48,0.00,,---,0.00,VWS V14.01,2013-07-16 19:25:00,
2013-07-16 14:30:00,91.4,67.7,30.13,SE,139,5.0,12.0,46,0.00,,---,0.00,VWS V14.01,2013-07-16 19:30:00,
2013-07-16 14:35:00,91.2,68.2,30.13,ESE,119,4.0,12.0,47,0.00,,---,0.00,VWS V14.01,2013-07-16 19:35:00,
2013-07-16 14:40:00,91.4,67.7,30.13,ESE,121,2.0,7.0,46,0.00,,---,0.00,VWS V14.01,2013-07-16 19:40:00,
2013-07-16 14:45:00,91.4,67.7,30.13,East,92,4.0,12.0,46,0.00,,---,0.00,VWS V14.01,2013-07-16 19:45:00,
2013-07-16 14:50:00,91.2,68.2,30.13,East,99,7.0,12.0,47,0.00,,---,0.00,VWS V14.01,2013-07-16 19:50:00,
2013-07-16 14:55:00,91.4,68.3,30.13,SE,132,10.0,12.0,47,0.00,,---,0.00,VWS V14.01,2013-07-16 19:55:00,
2013-07-16 15:00:00,91.2,67.6,30.13,SE,125,5.0,12.0,46,0.00,,---,0.00,VWS V14.01,2013-07-16 20:00:00,
2013-07-16 15:05:00,91.0,67.4,30.12,SE,131,4.0,12.0,46,0.00,,---,0.00,VWS V14.01,2013-07-16 20:05:00,
2013-07-16 15:10:00,90.7,67.7,30.12,ENE,59,0.0,4.0,47,0.00,,---,0.00,VWS V14.01,2013-07-16 20:10:00,
2013-07-16 15:15:00,91.0,67.4,30.12,SE,129,0.0,6.0,46,0.00,,---,0.00,VWS V14.01,2013-07-16 20:15:00,
2013-07-16 15:20:00,91.2,66.3,30.13,ESE,115,1.0,12.0,44,0.00,,---,0.00,VWS V14.01,2013-07-16 20:20:00,
2013-07-16 15:25:00,91.6,66.6,30.13,East,92,1.0,12.0,44,0.00,,---,0.00,VWS V14.01,2013-07-16 20:25:00,
2013-07-16 15:30:00,92.1,66.4,30.13,ESE,113,2.0,12.0,43,0.00,,---,0.00,VWS V14.01,2013-07-16 20:30:00,
2013-07-16 15:35:00,92.7,66.9,30.12,South,189,1.0,12.0,43,0.00,,---,0.00,VWS V14.01,2013-07-16 20:35:00,
2013-07-16 15:40:00,92.7,66.3,30.12,SE,132,1.0,9.0,42,0.00,,---,0.00,VWS V14.01,2013-07-16 20:40:00,
2013-07-16 15:45:00,92.7,66.3,30.12,North,360,0.0,9.0,42,0.00,,---,0.00,VWS V14.01,2013-07-16 20:45:00,
2013-07-16 15:50:00,92.7,66.3,30.12,ESE,117,0.0,12.0,42,0.00,,---,0.00,VWS V14.01,2013-07-16 20:50:00,
2013-07-16 15:55:00,92.7,66.3,30.12,ESE,121,4.0,12.0,42,0.00,,---,0.00,VWS V14.01,2013-07-16 20:55:00,
2013-07-16 16:00:00,92.9,66.4,30.12,North,360,1.0,12.0,42,0.00,,---,0.00,VWS V14.01,2013-07-16 21:00:00,
2013-07-16 16:05:00,93.2,66.0,30.11,North,9,0.0,12.0,41,0.00,,---,0.00,VWS V14.01,2013-07-16 21:05:00,
2013-07-16 16:10:00,93.2,66.0,30.11,East,100,0.0,5.0,41,0.00,,---,0.00,VWS V14.01,2013-07-16 21:10:00,
2013-07-16 16:15:00,93.4,66.2,30.11,North,360,1.0,6.0,41,0.00,,---,0.00,VWS V14.01,2013-07-16 21:15:00,
2013-07-16 16:20:00,93.6,65.7,30.10,SE,141,3.0,9.0,40,0.00,,---,0.00,VWS V14.01,2013-07-16 21:20:00,
2013-07-16 16:25:00,93.4,66.2,30.10,ESE,106,7.0,12.0,41,0.00,,---,0.00,VWS V14.01,2013-07-16 21:25:00,
2013-07-16 16:30:00,93.4,66.9,30.10,ESE,105,3.0,12.0,42,0.00,,---,0.00,VWS V14.01,2013-07-16 21:30:00,
2013-07-16 16:35:00,93.4,65.5,30.10,ESE,123,3.0,12.0,40,0.00,,---,0.00,VWS V14.01,2013-07-16 21:35:00,
2013-07-16 16:40:00,93.8,65.1,30.10,NNE,19,1.0,10.0,39,0.00,,---,0.00,VWS V14.01,2013-07-16 21:40:00,
2013-07-16 16:45:00,94.0,64.6,30.10,NE,49,1.0,10.0,38,0.00,,---,0.00,VWS V14.01,2013-07-16 21:45:00,
2013-07-16 16:50:00,94.3,66.3,30.10,NE,51,2.0,10.0,40,0.00,,---,0.00,VWS V14.01,2013-07-16 21:50:00,
2013-07-16 16:55:00,94.0,65.3,30.10,ESE,115,2.0,10.0,39,0.00,,---,0.00,VWS V14.01,2013-07-16 21:55:00,
2013-07-16 17:00:00,93.8,65.1,30.10,SE,126,3.0,10.0,39,0.00,,---,0.00,VWS V14.01,2013-07-16 22:00:00,
2013-07-16 17:05:00,93.8,64.4,30.10,ESE,123,0.0,10.0,38,0.00,,---,0.00,VWS V14.01,2013-07-16 22:05:00,
2013-07-16 17:10:00,93.8,65.1,30.10,SE,130,1.0,5.0,39,0.00,,---,0.00,VWS V14.01,2013-07-16 22:10:00,
2013-07-16 17:15:00,93.8,63.6,30.10,ESE,103,1.0,5.0,37,0.00,,---,0.00,VWS V14.01,2013-07-16 22:15:00,
2013-07-16 17:20:00,93.8,64.4,30.10,ENE,76,0.0,10.0,38,0.00,,---,0.00,VWS V14.01,2013-07-16 22:20:00,
2013-07-16 17:25:00,93.4,64.0,30.10,ENE,78,1.0,10.0,38,0.00,,---,0.00,VWS V14.01,2013-07-16 22:25:00,
2013-07-16 17:30:00,93.4,64.8,30.10,ENE,63,1.0,10.0,39,0.00,,---,0.00,VWS V14.01,2013-07-16 22:30:00,
2013-07-16 17:35:00,93.4,64.8,30.10,East,98,1.0,10.0,39,0.00,,---,0.00,VWS V14.01,2013-07-16 22:35:00,
2013-07-16 17:40:00,93.6,64.9,30.10,SE,128,8.0,10.0,39,0.00,,---,0.00,VWS V14.01,2013-07-16 22:40:00,
2013-07-16 17:45:00,93.6,65.7,30.10,East,94,3.0,10.0,40,0.00,,---,0.00,VWS V14.01,2013-07-16 22:45:00,
2013-07-16 17:50:00,93.6,64.9,30.11,SE,126,3.0,10.0,39,0.00,,---,0.00,VWS V14.01,2013-07-16 22:50:00,
2013-07-16 17:55:00,93.6,65.7,30.11,ENE,63,1.0,10.0,40,0.00,,---,0.00,VWS V14.01,2013-07-16 22:55:00,
2013-07-16 18:00:00,93.8,65.1,30.11,ENE,76,3.0,10.0,39,0.00,,---,0.00,VWS V14.01,2013-07-16 23:00:00,
2013-07-16 18:05:00,93.6,64.9,30.11,East,101,3.0,10.0,39,0.00,,---,0.00,VWS V14.01,2013-07-16 23:05:00,
2013-07-16 18:10:00,93.6,64.9,30.11,SE,134,2.0,7.0,39,0.00,,---,0.00,VWS V14.01,2013-07-16 23:10:00,
2013-07-16 18:15:00,93.4,64.8,30.11,SE,128,3.0,10.0,39,0.00,,---,0.00,VWS V14.01,2013-07-16 23:15:00,
2013-07-16 18:20:00,93.2,65.3,30.10,East,98,6.0,10.0,40,0.00,,---,0.00,VWS V14.01,2013-07-16 23:20:00,
2013-07-16 18:25:00,93.2,64.6,30.10,East,101,2.0,11.0,39,0.00,,---,0.00,VWS V14.01,2013-07-16 23:25:00,
2013-07-16 18:30:00,92.9,65.0,30.10,ESE,122,1.0,11.0,40,0.00,,---,0.00,VWS V14.01,2013-07-16 23:30:00,
2013-07-16 18:35:00,92.9,65.0,30.10,ESE,119,1.0,11.0,40,0.00,,---,0.00,VWS V14.01,2013-07-16 23:35:00,
2013-07-16 18:40:00,92.9,64.3,30.10,SSE,155,2.0,4.0,39,0.00,,---,0.00,VWS V14.01,2013-07-16 23:40:00,
2013-07-16 18:45:00,92.9,65.0,30.10,SE,124,11.0,11.0,40,0.00,,---,0.00,VWS V14.01,2013-07-16 23:45:00,
2013-07-16 18:50:00,92.7,64.9,30.10,NE,34,0.0,11.0,40,0.00,,---,0.00,VWS V14.01,2013-07-16 23:50:00,
2013-07-16 18:55:00,92.5,64.7,30.10,NNE,24,0.0,11.0,40,0.00,,---,0.00,VWS V14.01,2013-07-16 23:55:00,
2013-07-16 19:00:00,92.5,65.4,30.10,North,355,0.0,11.0,41,0.00,,---,0.00,VWS V14.01,2013-07-17 00:00:00,
2013-07-16 19:04:00,92.3,65.2,30.11,ESE,107,0.0,11.0,41,0.00,,---,0.00,VWS V14.01,2013-07-17 00:04:00,
2013-07-16 19:10:00,92.3,65.2,30.11,NE,49,0.0,1.0,41,0.00,,---,0.00,VWS V14.01,2013-07-17 00:10:00,
2013-07-16 19:14:00,92.3,65.2,30.11,East,99,1.0,2.0,41,0.00,,---,0.00,VWS V14.01,2013-07-17 00:14:00,
2013-07-16 19:19:00,92.1,65.0,30.11,NE,42,1.0,2.0,41,0.00,,---,0.00,VWS V14.01,2013-07-17 00:19:00,
2013-07-16 19:24:00,92.1,65.0,30.11,ENE,62,0.0,2.0,41,0.00,,---,0.00,VWS V14.01,2013-07-17 00:24:00,
2013-07-16 19:29:00,91.8,65.5,30.11,ESE,115,2.0,3.0,42,0.00,,---,0.00,VWS V14.01,2013-07-17 00:29:00,
2013-07-16 19:30:00,91.6,66.0,30.11,East,94,0.0,3.0,43,0.00,,---,0.00,VWS V14.01,2013-07-17 00:30:00,
2013-07-16 19:34:00,91.6,66.0,30.11,ESE,106,0.0,3.0,43,0.00,,---,0.00,VWS V14.01,2013-07-17 00:34:00,
2013-07-16 19:39:00,91.4,65.8,30.11,ESE,116,0.0,6.0,43,0.00,,---,0.00,VWS V14.01,2013-07-17 00:39:00,
2013-07-16 19:44:00,91.4,65.8,30.11,ENE,64,0.0,6.0,43,0.00,,---,0.00,VWS V14.01,2013-07-17 00:44:00,
2013-07-16 19:49:00,91.2,66.3,30.11,East,96,0.0,6.0,44,0.00,,---,0.00,VWS V14.01,2013-07-17 00:49:00,
2013-07-16 19:54:00,91.0,66.1,30.11,East,88,1.0,6.0,44,0.00,,---,0.00,VWS V14.01,2013-07-17 00:54:00,
2013-07-16 19:59:00,90.7,67.1,30.11,ESE,103,1.0,6.0,46,0.00,,---,0.00,VWS V14.01,2013-07-17 00:59:00,
2013-07-16 20:00:00,90.7,67.1,30.11,ESE,111,0.0,6.0,46,0.00,,---,0.00,VWS V14.01,2013-07-17 01:00:00,
2013-07-16 20:05:00,90.3,66.7,30.11,ENE,75,0.0,6.0,46,0.00,,---,0.00,VWS V14.01,2013-07-17 01:05:00,
2013-07-16 20:10:00,90.1,67.2,30.11,ENE,57,0.0,1.0,47,0.00,,---,0.00,VWS V14.01,2013-07-17 01:10:00,
2013-07-16 20:15:00,89.9,67.6,30.11,ENE,61,1.0,1.0,48,0.00,,---,0.00,VWS V14.01,2013-07-17 01:15:00,
2013-07-16 20:20:00,89.5,67.2,30.11,East,91,2.0,2.0,48,0.00,,---,0.00,VWS V14.01,2013-07-17 01:20:00,
2013-07-16 20:25:00,89.3,67.1,30.11,ENE,75,0.0,2.0,48,0.00,,---,0.00,VWS V14.01,2013-07-17 01:25:00,
2013-07-16 20:30:00,88.8,67.2,30.11,ENE,65,0.0,2.0,49,0.00,,---,0.00,VWS V14.01,2013-07-17 01:30:00,
2013-07-16 20:35:00,88.6,68.2,30.11,NE,40,0.0,2.0,51,0.00,,---,0.00,VWS V14.01,2013-07-17 01:35:00,
2013-07-16 20:40:00,88.4,68.0,30.11,East,88,0.0,1.0,51,0.00,,---,0.00,VWS V14.01,2013-07-17 01:40:00,
2013-07-16 20:45:00,88.0,67.6,30.11,ENE,78,0.0,1.0,51,0.00,,---,0.00,VWS V14.01,2013-07-17 01:45:00,
2013-07-16 20:50:00,87.8,67.4,30.12,East,88,0.0,1.0,51,0.00,,---,0.00,VWS V14.01,2013-07-17 01:50:00,
2013-07-16 20:55:00,87.6,67.8,30.12,East,92,0.0,1.0,52,0.00,,---,0.00,VWS V14.01,2013-07-17 01:55:00,
2013-07-16 21:00:00,87.2,68.0,30.12,ENE,71,0.0,2.0,53,0.00,,---,0.00,VWS V14.01,2013-07-17 02:00:00,
2013-07-16 21:05:00,87.0,67.8,30.12,ENE,75,0.0,2.0,53,0.00,,---,0.00,VWS V14.01,2013-07-17 02:05:00,
2013-07-16 21:10:00,86.7,68.1,30.12,East,87,0.0,1.0,54,0.00,,---,0.00,VWS V14.01,2013-07-17 02:10:00,
2013-07-16 21:15:00,86.5,67.9,30.12,East,100,1.0,1.0,54,0.00,,---,0.00,VWS V14.01,2013-07-17 02:15:00,
2013-07-16 21:20:00,86.3,67.7,30.13,NE,51,0.0,1.0,54,0.00,,---,0.00,VWS V14.01,2013-07-17 02:20:00,
2013-07-16 21:25:00,86.1,67.5,30.13,ENE,65,0.0,2.0,54,0.00,,---,0.00,VWS V14.01,2013-07-17 02:25:00,
2013-07-16 21:30:00,85.9,67.9,30.13,ENE,65,0.0,2.0,55,0.00,,---,0.00,VWS V14.01,2013-07-17 02:30:00,
2013-07-16 21:35:00,85.7,67.2,30.13,ENE,76,0.0,2.0,54,0.00,,---,0.00,VWS V14.01,2013-07-17 02:35:00,
2013-07-16 21:40:00,85.5,67.5,30.13,East,96,0.0,1.0,55,0.00,,---,0.00,VWS V14.01,2013-07-17 02:40:00,
2013-07-16 21:45:00,85.5,67.5,30.13,ENE,59,0.0,1.0,55,0.00,,---,0.00,VWS V14.01,2013-07-17 02:45:00,
2013-07-16 21:50:00,85.3,67.3,30.14,ENE,78,0.0,1.0,55,0.00,,---,0.00,VWS V14.01,2013-07-17 02:50:00,
2013-07-16 21:55:00,85.1,67.1,30.14,ENE,72,0.0,1.0,55,0.00,,---,0.00,VWS V14.01,2013-07-17 02:55:00,
2013-07-16 22:00:00,84.9,66.9,30.14,ENE,73,0.0,1.0,55,0.00,,---,0.00,VWS V14.01,2013-07-17 03:00:00,
2013-07-16 22:05:00,84.9,67.5,30.15,ENE,74,0.0,1.0,56,0.00,,---,0.00,VWS V14.01,2013-07-17 03:05:00,
2013-07-16 22:10:00,84.7,67.3,30.15,ENE,70,0.0,1.0,56,0.00,,---,0.00,VWS V14.01,2013-07-17 03:10:00,
2013-07-16 22:15:00,84.5,67.1,30.15,ENE,74,0.0,2.0,56,0.00,,---,0.00,VWS V14.01,2013-07-17 03:15:00,
2013-07-16 22:20:00,84.5,67.1,30.15,East,92,0.0,2.0,56,0.00,,---,0.00,VWS V14.01,2013-07-17 03:20:00,
2013-07-16 22:25:00,84.3,66.9,30.15,ESE,103,0.0,2.0,56,0.00,,---,0.00,VWS V14.01,2013-07-17 03:25:00,
2013-07-16 22:30:00,84.1,66.7,30.15,ENE,74,0.0,2.0,56,0.00,,---,0.00,VWS V14.01,2013-07-17 03:30:00,
2013-07-16 22:35:00,84.1,67.2,30.15,East,85,0.0,2.0,57,0.00,,---,0.00,VWS V14.01,2013-07-17 03:35:00,
2013-07-16 22:40:00,84.0,67.7,30.15,East,91,0.0,1.0,58,0.00,,---,0.00,VWS V14.01,2013-07-17 03:40:00,
2013-07-16 22:45:00,83.8,68.0,30.15,ENE,63,0.0,1.0,59,0.00,,---,0.00,VWS V14.01,2013-07-17 03:45:00,
2013-07-16 22:50:00,83.6,67.8,30.16,ENE,70,0.0,1.0,59,0.00,,---,0.00,VWS V14.01,2013-07-17 03:50:00,
2013-07-16 22:54:00,83.4,68.1,30.16,East,98,0.0,1.0,60,0.00,,---,0.00,VWS V14.01,2013-07-17 03:54:00,
2013-07-16 22:59:00,83.2,67.9,30.16,ENE,63,0.0,10.0,60,0.00,,---,0.00,VWS V14.01,2013-07-17 03:59:00,
2013-07-16 23:00:00,82.8,68.0,30.17,ENE,60,0.0,10.0,61,0.00,,---,0.00,VWS V14.01,2013-07-17 04:00:00,
2013-07-16 23:01:00,83.2,67.9,30.16,ESE,104,0.0,10.0,60,0.00,,---,0.00,VWS V14.01,2013-07-17 04:01:00,
2013-07-16 23:06:00,82.8,68.0,30.17,ESE,111,0.0,1.0,61,0.00,,---,0.00,VWS V14.01,2013-07-17 04:06:00,
2013-07-16 23:11:00,82.6,67.8,30.17,ESE,112,0.0,1.0,61,0.00,,---,0.00,VWS V14.01,2013-07-17 04:11:00,
2013-07-16 23:16:00,82.4,67.6,30.17,ENE,69,0.0,1.0,61,0.00,,---,0.00,VWS V14.01,2013-07-17 04:16:00,
2013-07-16 23:21:00,82.2,67.4,30.17,East,90,0.0,1.0,61,0.00,,---,0.00,VWS V14.01,2013-07-17 04:21:00,
2013-07-16 23:26:00,82.0,67.2,30.17,ESE,107,0.0,1.0,61,0.00,,---,0.00,VWS V14.01,2013-07-17 04:26:00,
2013-07-16 23:30:00,81.6,67.3,30.17,SE,125,0.0,1.0,62,0.00,,---,0.00,VWS V14.01,2013-07-17 04:30:00,
2013-07-16 23:31:00,81.8,67.1,30.17,ESE,111,0.0,1.0,61,0.00,,---,0.00,VWS V14.01,2013-07-17 04:31:00,
2013-07-16 23:36:00,81.6,67.3,30.17,ESE,117,0.0,0.0,62,0.00,,---,0.00,VWS V14.01,2013-07-17 04:36:00,
2013-07-16 23:41:00,81.4,67.1,30.17,ESE,120,0.0,1.0,62,0.00,,---,0.00,VWS V14.01,2013-07-17 04:41:00,
2013-07-16 23:46:00,81.2,66.9,30.17,ENE,71,0.0,1.0,62,0.00,,---,0.00,VWS V14.01,2013-07-17 04:46:00,
2013-07-16 23:51:00,81.1,67.3,30.18,ESE,105,0.0,1.0,63,0.00,,---,0.00,VWS V14.01,2013-07-17 04:51:00,
2013-07-16 23:55:00,80.9,67.1,30.18,ENE,58,0.0,1.0,63,0.00,,---,0.00,VWS V14.01,2013-07-17 04:55:00,
2013-07-16 23:59:00,80.9,67.1,30.18,East,85,0.0,1.0,63,0.00,,---,0.00,VWS V14.01,2013-07-17 04:59:00,